| time (UTC) | temp F | wind direction | speed MPH | gust MPH | rain 1hr in | rain 24hr in | rain mn in | humidity % | barometer mb |
| 20260505010019 | 49 | 290 | 12.0 | 19.0 | 0.00 | 0.00 | 0.00 | 43 | 1004.4 |
| 20260505004535 | 50 | 329 | 14.0 | 23.0 | 0.00 | 0.00 | 0.00 | 42 | 1004.3 |
| 20260505003016 | 50 | 338 | 16.0 | 21.0 | 0.00 | 0.00 | 0.00 | 42 | 1004.1 |
| 20260505001515 | 50 | 337 | 18.0 | 24.0 | 0.00 | 0.00 | 0.00 | 41 | 1003.8 |
| 20260505000020 | 51 | 320 | 16.0 | 23.0 | 0.00 | 0.00 | 0.00 | 40 | 1003.9 |
| 20260504234525 | 52 | 297 | 15.0 | 26.0 | 0.00 | 0.00 | 0.00 | 38 | 1004.0 |
| 20260504233011 | 53 | 290 | 15.0 | 26.0 | 0.00 | 0.00 | 0.00 | 37 | 1003.8 |
| 20260504231530 | 53 | 330 | 20.0 | 26.0 | 0.00 | 0.00 | 0.00 | 38 | 1003.6 |
| 20260504230011 | 53 | 317 | 21.0 | 28.0 | 0.00 | 0.00 | 0.00 | 38 | 1003.6 |
| 20260504224508 | 53 | 325 | 18.0 | 28.0 | 0.00 | 0.00 | 0.00 | 37 | 1003.5 |
| 20260504223008 | 52 | 301 | 20.0 | 27.0 | 0.00 | 0.00 | 0.00 | 38 | 1003.4 |
| 20260504221506 | 53 | 315 | 19.0 | 30.0 | 0.00 | 0.00 | 0.00 | 38 | 1003.3 |
| 20260504220006 | 53 | 304 | 20.0 | 33.0 | 0.00 | 0.00 | 0.00 | 39 | 1003.3 |
| 20260504214509 | 52 | 304 | 21.0 | 26.0 | 0.00 | 0.00 | 0.00 | 38 | 1003.3 |
| 20260504213006 | 53 | 304 | 23.0 | 34.0 | 0.00 | 0.00 | 0.00 | 37 | 1003.0 |
| 20260504211503 | 53 | 307 | 24.0 | 33.0 | 0.00 | 0.00 | 0.00 | 37 | 1002.9 |
| 20260504210001 | 52 | 307 | 23.0 | 29.0 | 0.00 | 0.00 | 0.00 | 40 | 1002.9 |
| 20260504204500 | 51 | 309 | 16.0 | 32.0 | 0.00 | 0.00 | 0.00 | 42 | 1003.0 |
| 20260504203100 | 52 | 307 | 18.0 | 38.0 | 0.00 | 0.00 | 0.00 | 43 | 1003.0 |
| 20260504201559 | 52 | 303 | 22.0 | 36.0 | 0.00 | 0.00 | 0.00 | 45 | 1002.8 |
| 20260504200058 | 52 | 308 | 23.0 | 33.0 | 0.00 | 0.00 | 0.00 | 44 | 1002.5 |
| 20260504194558 | 53 | 334 | 23.0 | 35.0 | 0.00 | 0.00 | 0.00 | 45 | 1002.4 |
| 20260504193054 | 53 | 316 | 22.0 | 33.0 | 0.00 | 0.00 | 0.00 | 45 | 1002.3 |
| 20260504191553 | 54 | 322 | 25.0 | 36.0 | 0.00 | 0.00 | 0.00 | 43 | 1002.0 |
| 20260504190059 | 54 | 300 | 21.0 | 34.0 | 0.00 | 0.00 | 0.00 | 43 | 1002.0 |
| 20260504184602 | 55 | 297 | 24.0 | 34.0 | 0.00 | 0.00 | 0.00 | 45 | 1001.9 |
| 20260504183057 | 55 | 319 | 23.0 | 33.0 | 0.00 | 0.00 | 0.00 | 44 | 1001.5 |
| 20260504181549 | 54 | 291 | 19.0 | 31.0 | 0.00 | 0.00 | 0.00 | 45 | 1001.4 |
| 20260504180045 | 54 | 297 | 20.0 | 29.0 | 0.00 | 0.00 | 0.00 | 45 | 1001.2 |
| 20260504174548 | 55 | 290 | 22.0 | 34.0 | 0.00 | 0.00 | 0.00 | 43 | 1000.8 |
| 20260504173042 | 55 | 321 | 21.0 | 31.0 | 0.00 | 0.00 | 0.00 | 43 | 1000.4 |
| 20260504171545 | 55 | 283 | 18.0 | 28.0 | 0.00 | 0.00 | 0.00 | 42 | 1000.4 |
| 20260504081511 | 57 | 198 | 23.0 | 30.0 | 0.00 | 0.00 | 0.00 | 47 | 994.7 |
| 20260504070104 | 58 | 224 | 19.0 | 25.0 | 0.00 | 0.00 | 0.00 | 46 | 996.0 |
| 20260504044539 | 54 | 214 | 13.0 | 17.0 | 0.00 | 0.00 | 0.00 | 49 | 998.5 |
| 20260504043030 | 54 | 207 | 13.0 | 17.0 | 0.00 | 0.00 | 0.00 | 49 | 998.7 |
| 20260504041530 | 53 | 198 | 11.0 | 14.0 | 0.00 | 0.00 | 0.00 | 51 | 999.0 |
| 20260504040025 | 51 | 212 | 9.0 | 12.0 | 0.00 | 0.00 | 0.00 | 53 | 999.4 |
| 20260504034523 | 49 | 214 | 7.0 | 10.0 | 0.00 | 0.00 | 0.00 | 56 | 999.7 |
| 20260504033023 | 50 | 201 | 7.0 | 9.0 | 0.00 | 0.00 | 0.00 | 53 | 999.9 |
| 20260504031520 | 51 | 203 | 7.0 | 9.0 | 0.00 | 0.00 | 0.00 | 52 | 1000.2 |
| 20260504030027 | 52 | 207 | 8.0 | 11.0 | 0.00 | 0.00 | 0.00 | 53 | 1000.4 |
| 20260504024516 | 54 | 205 | 8.0 | 11.0 | 0.00 | 0.00 | 0.00 | 50 | 1000.6 |
| 20260504023014 | 52 | 216 | 7.0 | 11.0 | 0.00 | 0.00 | 0.00 | 53 | 1000.9 |
| 20260504021513 | 52 | 229 | 5.0 | 9.0 | 0.00 | 0.00 | 0.00 | 52 | 1001.0 |
| 20260504020017 | 54 | 231 | 6.0 | 8.0 | 0.00 | 0.00 | 0.00 | 48 | 1001.1 |
| 20260504014512 | 54 | 219 | 4.0 | 7.0 | 0.00 | 0.00 | 0.00 | 48 | 1001.1 |
| 20260504013011 | 58 | 243 | 4.0 | 6.0 | 0.00 | 0.00 | 0.00 | 42 | 1001.2 |
| 20260504011509 | 63 | 233 | 4.0 | 9.0 | 0.00 | 0.00 | 0.00 | 36 | 1001.4 |